Hulianwang W. Digui 06-06

operational
NORAD ID: 65048 Int'l Des: 2025-162 Owner: ZXW Country: CN Constellation: xingwang
LEOCIRCULAR

关于 Hulianwang W. Digui 06-06

正在加载描述...

实时位置

正在加载3D地球...

即将过境

高度历史

Altitude vs Time

uPlot chart will show altitude changes over time

两行轨道根数

1 65048U 25162F 25340.89091063 -.00000036 00000-0 18983-3 0 9991
2 65048 50.0038 235.3745 0000469 75.4200 284.6724 13.29331766 17784
Epoch: Dec 6, 2025 • Age: 17 hours

当前状态

高度 1153.4 km
速度 7.28 km/s
星下点 45.12°N, 3.89°E
发射日期 Jul 30, 2025
运行时间 0.3 years
类型 other

技术详情

分类 Payload
质量 800.00 kg
干质量 800.00 kg
总质量 800.00 kg
长度 3.00 m
直径 1.00 m
跨度 10.00 m
形状 Box + 2 Pan
制造商 SECM
平台类型 Guowang S
阶段状态 In Orbit
所有者/国家 ZXW/CN

大型星座

Loading constellations...